This is the latest recevied weather packets stored in our database for station/object KC2TER. If no packets are shown the sender has not sent any weather packets the latest 1 day(s).
| Time | Temp. | Humidity | Pressure | Rain* | Wind** | Luminosity | Snow |
|---|---|---|---|---|---|---|---|
| 1778036142 | 19.44° C | 73% | 1011.1 hPa | 0 mm | 1.79 m/s, 43° | 0 W/m² | - |
| 1778035838 | 19.44° C | 72% | 1011.4 hPa | 0 mm | 0.89 m/s, 97° | 0 W/m² | - |
| 1778035535 | 19.44° C | 73% | 1011.5 hPa | 0 mm | 0.45 m/s, 83° | 0 W/m² | - |
| 1778035231 | 19.44° C | 73% | 1011.6 hPa | 0 mm | 1.34 m/s, 116° | 0 W/m² | - |
| 1778034928 | 19.44° C | 72% | 1011.7 hPa | 0 mm | 0.89 m/s, 93° | 0 W/m² | - |
| 1778034635 | 19.44° C | 72% | 1011.6 hPa | 0 mm | 1.34 m/s, 112° | 0 W/m² | - |
| 1778034323 | 19.44° C | 72% | 1011.8 hPa | 0 mm | 1.34 m/s, 105° | 0 W/m² | - |
| 1778034020 | 19.44° C | 72% | 1011.6 hPa | 0 mm | 1.34 m/s, 103° | 0 W/m² | - |
| 1778033718 | 19.44° C | 71% | 1011.6 hPa | 0 mm | 0.45 m/s, 101° | 0 W/m² | - |
| 1778033415 | 19.44° C | 71% | 1011.4 hPa | 0 mm | 1.34 m/s, 86° | 0 W/m² | - |
| 1778033112 | 19.44° C | 71% | 1011.5 hPa | 0 mm | 0.45 m/s, 105° | 0 W/m² | - |
| 1778032810 | 20° C | 71% | 1011.5 hPa | 0 mm | 0.45 m/s, 100° | 0 W/m² | - |
| 1778032507 | 20° C | 70% | 1011.6 hPa | 0 mm | 1.79 m/s, 119° | 0 W/m² | - |
| 1778032204 | 20° C | 69% | 1011.5 hPa | 0 mm | 0.45 m/s, 126° | 0 W/m² | - |
| 1778031901 | 20° C | 69% | 1011.4 hPa | 0 mm | 1.34 m/s, 116° | 0 W/m² | - |
| 1778031597 | 20° C | 68% | 1011.2 hPa | 0 mm | 1.34 m/s, 107° | 0 W/m² | - |
| 1778031295 | 20° C | 68% | 1011.1 hPa | 0 mm | 0.45 m/s, 109° | 0 W/m² | - |
| 1778030990 | 20° C | 67% | 1011 hPa | 0 mm | 1.79 m/s, 111° | 0 W/m² | - |
| 1778030687 | 20° C | 66% | 1011.3 hPa | 0 mm | 0.45 m/s, 91° | 0 W/m² | - |
| 1778030384 | 20° C | 66% | 1011 hPa | 0 mm | 0.89 m/s, 109° | 0 W/m² | - |
| 1778030082 | 20° C | 66% | 1011.1 hPa | 0 mm | 4.47 m/s, 55° | 0 W/m² | - |
| 1778029778 | 20° C | 66% | 1011.1 hPa | 0 mm | 1.79 m/s, 99° | 0 W/m² | - |
| 1778029478 | 20° C | 65% | 1010.8 hPa | 0 mm | 0.45 m/s, 107° | 0 W/m² | - |
| 1778029173 | 20° C | 65% | 1010.9 hPa | 0 mm | 1.79 m/s, 307° | 0 W/m² | - |
| 1778028872 | 20° C | 65% | 1010.8 hPa | 0 mm | 1.34 m/s, 100° | 0 W/m² | - |
* Rain latest hour (hover to see other rain measurements)
** Current wind speed in m/s (hover to see current wind gust speed)